Location: Antaka
(14.7258°N, 3.0647°W)
Time: 11:45:53
(UTC+00:00)

Daily predictions for brighter satellites

Satellite Brightness Start Highest point End
(mag) Time Altitude Azimuth Time Altitude Azimuth Time Altitude Azimuth
Atlas 2A Centaur Rocket 4.0 18:23:47 10° W 18:28:02 65° NNW 18:49:04 10° ENE
BLOCK DM-SL R/B 4.1 18:50:19 10° SSW 18:54:09 24° SSE 19:06:37 10° ESE
Yuri Rocket 4.3 18:50:43 10° W 18:55:53 44° NNW 19:00:03 10° NE
SL-24 R/B 3.7 18:52:16 10° NNE 18:55:59 74° E 19:00:02 10° S
Cosmos 1140 Rocket 4.2 18:55:02 10° SSE 18:59:39 33° E 19:04:18 10° NE
CZ-2C R/B 3.7 18:56:32 10° NE 19:00:31 22° E 19:04:32 10° SSE
Cosmos 1151 Rocket 3.1 18:56:44 10° N 19:00:56 55° E 19:05:09 10° SSE
Cosmos 1939 Rocket 3.4 19:01:58 10° S 19:05:44 60° W 19:09:32 10° NNW
Sakura Rocket 4.4 18:58:11 10° WNW 19:06:30 65° NNE 19:12:11 11° ESE
Meteor 1-26 Rocket 4.3 19:06:39 10° N 19:11:53 50° E 19:17:06 10° SSE
Cosmos 2218 Rocket 4.1 19:07:40 10° S 19:13:52 82° W 19:20:02 10° N
Cosmos 1515 Rocket 4.0 19:11:53 10° NNE 19:16:05 41° E 19:20:15 10° SSE
YAOGAN 1 2.5 19:11:54 10° SSE 19:16:12 90° SSE 19:20:31 10° NNW
CSL-04 Debris 4.3 19:11:32 10° SSE 19:16:55 59° ENE 19:22:17 10° N
MOS 1 Rocket 3.4 19:12:38 10° NNE 19:17:52 71° E 19:22:49 10° S
CZ-3B R/B 3.5 19:20:47 10° WNW 19:23:40 54° NNE 19:29:15 16° E
ATLAS 5 CENTAUR R/B 3.9 19:19:01 10° NNE 19:23:45 21° ENE 19:26:58 15° E
Cosmos 405 3.1 19:21:21 10° N 19:24:47 73° W 19:28:14 10° S
Cosmos 1833 Rocket 3.6 19:21:10 10° SSW 19:26:35 52° WNW 19:32:02 10° N
NOSS 3-2 (A) 3.1 19:21:34 10° SSW 19:26:55 87° ESE 19:32:33 10° NNE
Ariane H10+ 3.9 19:27:01 10° SSW 19:27:50 11° S 19:28:34 10° S
Cosmos 1862 3.2 19:24:48 10° S 19:28:48 67° E 19:32:48 10° N
ATLAS 5 CENTAUR R/B 2.7 19:27:22 10° S 19:29:54 19° SE 19:30:44 18° ESE
Sich 1 3.6 19:25:59 10° SSE 19:30:03 37° E 19:34:08 10° NNE
CZ-2C R/B 2.8 19:27:59 10° SSE 19:32:54 69° ENE 19:37:39 10° N
H-2A R/B 2.1 19:28:18 10° SSE 19:33:25 55° ENE 19:38:23 10° N
NOSS 3-2 (C) 3.2 19:31:03 10° S 19:36:15 52° ESE 19:41:41 10° NE
CZ-2C R/B 4.5 19:34:21 10° NE 19:38:10 28° E 19:39:11 25° ESE
Delta 202 4.3 19:30:10 10° W 19:38:18 66° N 19:42:30 20° E
Cosmos 2228 Rocket 3.6 19:35:33 10° NNE 19:39:36 36° E 19:41:14 27° SE
GPS 2-17 Rocket1 3.2 19:38:09 10° WNW 19:42:41 62° NNE 19:44:50 28° E
Cosmos 676 Rocket 3.9 19:43:23 10° S 19:48:37 68° ESE 19:53:53 10° NNE
Gbstr 26 Del rocket 3.4 19:45:05 10° NW 19:48:40 48° SW 19:50:42 23° S
USA 267 3.3 19:42:55 10° NE 19:49:26 81° NW 19:55:59 10° SW
HJ-1C 4.3 19:47:56 10° S 19:51:11 48° W 19:54:25 10° NNW
BREEZE-M DEB (TANK) 4.0 19:51:40 10° N 19:53:38 14° NNE 19:53:38 14° NNE
Cosmos 1441 Rocket 4.1 19:50:25 10° SSW 19:54:07 49° W 19:57:47 10° N
Cosmos 389 Rocket 4.3 19:51:44 10° NNE 19:53:00 18° NE 19:53:00 18° NE
IRIDIUM 104 4.2 19:51:06 10° S 19:56:16 72° E 20:01:27 10° N
Cosmos 1727 Rocket 3.9 19:51:48 10° N 19:58:05 67° E 20:02:55 18° SSE
Cosmos 1821 Rocket 3.9 19:57:03 10° S 20:03:09 86° W 20:09:19 10° N
Cosmos 1666 Rocket 3.3 20:03:58 50° SSE 20:04:54 68° E 20:09:11 10° N
SL-08 RB Rocket 3.6 20:04:28 51° SE 20:05:23 64° ENE 20:09:58 10° N
IRIDIUM 114 4.2 20:00:11 10° S 20:05:24 88° W 20:10:37 10° N
CZ-4 R/B 4.5 20:04:42 10° WSW 20:05:58 11° W 20:07:15 10° WNW
Palapa 6 Rocket 4.4 19:59:20 10° WNW 20:06:50 74° NNE 20:10:25 37° E
Cosmos 1782 4.3 20:07:31 10° NNW 20:11:13 36° W 20:14:45 11° SSW
H-2A ROCKET BODY 3.9 20:07:00 10° WSW 20:11:16 33° SSW 20:16:39 23° SSE
Meteor 1-10 Rocket 4.2 20:08:27 10° N 20:14:12 66° E 20:15:40 49° SE
GPS 2-15 Rocket1 2.9 20:14:11 10° WSW 20:18:48 88° SW 20:18:48 88° SW
ARGOS 3.7 20:18:21 20° S 20:22:03 57° WSW 20:27:19 10° NNW
Ariane Rocket 2.9 20:22:32 56° S 20:23:37 81° WSW 20:28:40 10° NNW
MOS 1 4.1 20:24:45 64° SE 20:25:37 80° ENE 20:31:16 10° N
Cosmos 1535 Rocket 4.3 20:25:46 39° S 20:28:12 82° E 20:34:19 10° N
Cosmos 1633 Rocket 3.6 20:33:56 56° WNW 20:33:56 56° WNW 20:37:51 10° N
CENTAUR R/B 3.3 20:31:32 10° SW 20:36:31 42° WNW 20:42:05 10° N
Cosmos 1000 Rocket 4.3 20:37:10 10° N 20:43:14 87° NNE 20:43:14 87° NNE
MetOp-A 4.3 20:44:30 68° NW 20:44:30 68° NW 20:49:12 10° NNW
ATLAS 5 CENTAUR R/B 3.2 21:02:01 10° NW 21:08:27 51° WSW 21:08:33 51° WSW
Cosmos 1980 Rocket 4.3 21:11:34 10° N 21:13:03 18° N 21:13:03 18° N
CZ-3A R/B 3.9 21:33:11 10° WNW 21:52:14 62° NW 21:52:14 62° NW
